Zurück zum Katalog

USA 224

AktivMilitärSSO
NORAD 37348·PAYLOAD·🇺🇸 United States

Gestartet Jan 20, 2011 von Vandenberg Space Force Base

Loading…

Nächste Überflüge (nächste 24 Stunden)

TLE

VeraltetSource: Mike McCants

Epoche: Sep 18, 2024, 02:01 UTC

1 37348U 11002A   24262.08462643 0.00057000  00000-0  53026-3 0    02
2 37348  97.8772  37.0228 0503871 200.0756 159.9242 14.84682940    01

Verfolge USA 224 in Echtzeit mit AllMySat

Download on the App Store